,,PA_Meas_PMT16A,,PR_Meas_QMR101_102,,RH_Meas_QMH101,,SR_Meas_QMS101,,TA_Meas_QMH101,,GenWind,,GenWind,
time,status,PA,status,PR,status,RH,status,SR,status,TA,status,DirAvg,status,SpdAvg,
2011-02-15, 00:00:04,VALID,917.723,VALID,0,VALID,90.2689,VALID,0,VALID,17.9677,VALID,130,VALID,0.789844,
2011-02-15, 00:01:04,VALID,917.656,VALID,0,VALID,90.3908,VALID,0,VALID,17.9872,VALID,130,VALID,0.486719,
2011-02-15, 00:02:04,VALID,917.626,VALID,0,VALID,90.1545,VALID,0,VALID,17.9468,VALID,130,VALID,0.663281,
2011-02-15, 00:03:04,VALID,917.629,VALID,0,VALID,90.1088,VALID,0,VALID,17.9872,VALID,130,VALID,0.366797,
2011-02-15, 00:04:04,VALID,917.614,VALID,0,VALID,90.4213,VALID,0,VALID,17.9677,VALID,130,VALID,0.455078,
2011-02-15, 00:05:04,VALID,917.631,VALID,0,VALID,90.7034,VALID,0,VALID,17.9482,VALID,130,VALID,0.594922,
2011-02-15, 00:06:04,VALID,917.654,VALID,0,VALID,90.5128,VALID,0,VALID,17.9287,VALID,130,VALID,0.760938,
2011-02-15, 00:07:04,VALID,917.66,VALID,0,VALID,90.2231,VALID,0,VALID,17.9092,VALID,130,VALID,1.04375,
2011-02-15, 00:08:04,VALID,917.695,VALID,0,VALID,89.8877,VALID,0,VALID,17.9092,VALID,130,VALID,1.36172,
2011-02-15, 00:09:04,VALID,917.666,VALID,0,VALID,89.7886,VALID,0.107441,VALID,17.8689,VALID,130,VALID,1.3043,
2011-02-15, 00:10:04,VALID,917.682,VALID,0,VALID,89.7047,VALID,0,VALID,17.9079,VALID,130,VALID,1.10586,
2011-02-15, 00:11:04,VALID,917.661,VALID,0,VALID,89.7886,VALID,0.107441,VALID,17.9482,VALID,130,VALID,0.861328,
2011-02-15, 00:12:04,VALID,917.687,VALID,0,VALID,88.8052,VALID,0,VALID,17.9287,VALID,130,VALID,1.13437,
2011-02-15, 00:13:04,VALID,917.651,VALID,0,VALID,88.7747,VALID,0,VALID,17.9482,VALID,130,VALID,0.755078,
2011-02-15, 00:14:04,VALID,917.656,VALID,0,VALID,87.9209,VALID,0.107441,VALID,17.9482,VALID,130,VALID,1.61523,
2011-02-15, 00:15:04,VALID,917.648,VALID,0,VALID,88.6756,VALID,0,VALID,17.9677,VALID,129,VALID,1.21328,
2011-02-15, 00:16:04,VALID,917.691,VALID,0,VALID,88.2639,VALID,0,VALID,17.9872,VALID,122,VALID,1.39063,
2011-02-15, 00:17:04,VALID,917.71,VALID,0,VALID,88.5917,VALID,0,VALID,17.9886,VALID,118,VALID,1.26953,
2011-02-15, 00:18:04,VALID,917.716,VALID,0,VALID,88.9348,VALID,0,VALID,17.9691,VALID,118,VALID,0.962109,
2011-02-15, 00:19:04,VALID,917.686,VALID,0,VALID,88.7823,VALID,0,VALID,17.9691,VALID,118,VALID,1.67148,
2011-02-15, 00:20:04,VALID,917.653,VALID,0,VALID,88.4697,VALID,0,VALID,17.9691,VALID,119,VALID,1.25195,
2011-02-15, 00:21:04,VALID,917.617,VALID,0,VALID,88.2105,VALID,0,VALID,17.9886,VALID,137,VALID,1.51523,
2011-02-15, 00:22:04,VALID,917.587,VALID,0,VALID,88.1343,VALID,0,VALID,18.008,VALID,126,VALID,1.33398,
2011-02-15, 00:23:04,VALID,917.532,VALID,0,VALID,88.3325,VALID,0,VALID,18.0289,VALID,143,VALID,1.09258,
2011-02-15, 00:24:04,VALID,917.502,VALID,0,VALID,88.7366,VALID,0,VALID,18.008,VALID,127,VALID,0.936328,
2011-02-15, 00:25:04,VALID,917.482,VALID,0,VALID,89.3388,VALID,0,VALID,17.9691,VALID,127,VALID,0.966797,
2011-02-15, 00:26:04,VALID,917.468,VALID,0,VALID,89.4532,VALID,0,VALID,17.9301,VALID,115,VALID,1.13633,
2011-02-15, 00:27:04,VALID,917.451,VALID,0,VALID,89.1406,VALID,0,VALID,17.9106,VALID,113,VALID,1.30234,
2011-02-15, 00:28:04,VALID,917.451,VALID,0,VALID,89.6742,VALID,0,VALID,17.9106,VALID,101,VALID,0.678906,
2011-02-15, 00:29:04,VALID,917.439,VALID,0,VALID,89.6971,VALID,0,VALID,17.8911,VALID,124,VALID,0.992969,
2011-02-15, 00:30:04,VALID,917.395,VALID,0,VALID,90.0097,VALID,0,VALID,17.8911,VALID,124,VALID,0.684766,
2011-02-15, 00:31:04,VALID,917.394,VALID,0,VALID,90.0097,VALID,0,VALID,17.8716,VALID,124,VALID,0.891797,
2011-02-15, 00:32:04,VALID,917.344,VALID,0,VALID,90.0173,VALID,0,VALID,17.8508,VALID,124,VALID,1.01328,
2011-02-15, 00:33:04,VALID,917.346,VALID,0,VALID,89.72,VALID,0,VALID,17.8508,VALID,124,VALID,1.03203,
2011-02-15, 00:34:04,VALID,917.33,VALID,0,VALID,89.5751,VALID,0.107441,VALID,17.8702,VALID,124,VALID,0.920703,
2011-02-15, 00:35:04,VALID,917.338,VALID,0,VALID,89.537,VALID,0,VALID,17.8508,VALID,124,VALID,0.970703,
2011-02-15, 00:36:04,VALID,917.319,VALID,0,VALID,89.6285,VALID,0,VALID,17.8508,VALID,124,VALID,0.727344,
2011-02-15, 00:37:04,VALID,917.321,VALID,0,VALID,89.5294,VALID,0,VALID,17.8897,VALID,124,VALID,1.00703,
2011-02-15, 00:38:04,VALID,917.315,VALID,0,VALID,89.5294,VALID,0,VALID,17.8702,VALID,119,VALID,1.18672,
2011-02-15, 00:39:04,VALID,917.297,VALID,0,VALID,89.6819,VALID,0,VALID,17.8702,VALID,119,VALID,1.21563,
2011-02-15, 00:40:04,VALID,917.281,VALID,0,VALID,90.0249,VALID,0.107441,VALID,17.8702,VALID,118,VALID,1.03594,
2011-02-15, 00:41:04,VALID,917.277,VALID,0,VALID,90.4899,VALID,0,VALID,17.8716,VALID,110,VALID,1.20781,
2011-02-15, 00:42:04,VALID,917.243,VALID,0,VALID,90.5738,VALID,0,VALID,17.8118,VALID,110,VALID,0.956641,
2011-02-15, 00:43:04,VALID,917.205,VALID,0,VALID,90.5738,VALID,0,VALID,17.7923,VALID,110,VALID,0.933984,
2011-02-15, 00:44:04,VALID,917.188,VALID,0,VALID,90.65,VALID,0,VALID,17.7923,VALID,110,VALID,0.942187,
2011-02-15, 00:45:04,VALID,917.2,VALID,0,VALID,90.5967,VALID,0,VALID,17.7936,VALID,128,VALID,1.18008,
2011-02-15, 00:46:04,VALID,917.21,VALID,0,VALID,90.8483,VALID,0,VALID,17.7728,VALID,137,VALID,0.838281,
2011-02-15, 00:47:04,VALID,917.165,VALID,0,VALID,90.9321,VALID,0,VALID,17.7533,VALID,137,VALID,0.71875,
2011-02-15, 00:48:04,VALID,917.122,VALID,0,VALID,91.0465,VALID,0,VALID,17.7533,VALID,137,VALID,1.01055,
2011-02-15, 00:49:04,VALID,917.109,VALID,0,VALID,91.0007,VALID,0,VALID,17.7728,VALID,137,VALID,0.941016,
2011-02-15, 00:50:04,VALID,917.111,VALID,0,VALID,91.0693,VALID,0,VALID,17.7728,VALID,137,VALID,0.739062,
2011-02-15, 00:51:04,VALID,917.072,VALID,0,VALID,90.9702,VALID,0.107441,VALID,17.7728,VALID,127,VALID,1.28398,
2011-02-15, 00:52:04,VALID,917.036,VALID,0,VALID,90.7644,VALID,0,VALID,17.7533,VALID,124,VALID,1.14648,
2011-02-15, 00:53:04,VALID,917.014,VALID,0,VALID,90.8178,VALID,0,VALID,17.8118,VALID,142,VALID,1.16133,
2011-02-15, 00:54:04,VALID,916.968,VALID,0,VALID,90.8864,VALID,0,VALID,17.7923,VALID,123,VALID,1.03281,
2011-02-15, 00:55:04,VALID,916.914,VALID,0,VALID,90.9473,VALID,0,VALID,17.7728,VALID,123,VALID,0.872266,
2011-02-15, 00:56:04,VALID,916.883,VALID,0,VALID,91.1532,VALID,0,VALID,17.7728,VALID,123,VALID,1.02695,
2011-02-15, 00:57:04,VALID,916.837,VALID,0,VALID,91.481,VALID,0,VALID,17.7533,VALID,123,VALID,1.10195,
2011-02-15, 00:58:04,VALID,916.806,VALID,0,VALID,91.5191,VALID,0,VALID,17.6935,VALID,123,VALID,0.775781,
2011-02-15, 00:59:04,VALID,916.826,VALID,0,VALID,91.4581,VALID,0,VALID,17.7143,VALID,123,VALID,1.15234,
2011-02-15, 01:00:04,VALID,916.78,VALID,0,VALID,91.0541,VALID,0,VALID,17.6948,VALID,114,VALID,1.2168,
2011-02-15, 01:01:04,VALID,916.801,VALID,0,VALID,89.8496,VALID,0,VALID,17.7143,VALID,131,VALID,1.20742,
2011-02-15, 01:02:04,VALID,916.754,VALID,0,VALID,89.6361,VALID,0,VALID,17.7533,VALID,131,VALID,1.11094,
2011-02-15, 01:03:04,VALID,916.749,VALID,0,VALID,89.5828,VALID,0.107441,VALID,17.8118,VALID,131,VALID,0.678125,
2011-02-15, 01:04:04,VALID,916.757,VALID,0,VALID,89.1635,VALID,0,VALID,17.8313,VALID,131,VALID,0.910547,
2011-02-15, 01:05:04,VALID,916.714,VALID,0,VALID,88.7899,VALID,0,VALID,17.8299,VALID,131,VALID,0.780859,
2011-02-15, 01:06:04,VALID,916.685,VALID,0,VALID,88.8433,VALID,0.107441,VALID,17.8508,VALID,131,VALID,1.13477,
2011-02-15, 01:07:04,VALID,916.69,VALID,0,VALID,88.8585,VALID,0.107441,VALID,17.8702,VALID,131,VALID,0.5875,
2011-02-15, 01:08:04,VALID,916.656,VALID,0,VALID,89.2931,VALID,0,VALID,17.8702,VALID,138,VALID,1.37734,
2011-02-15, 01:09:04,VALID,916.675,VALID,0,VALID,90.185,VALID,0,VALID,17.8508,VALID,115,VALID,1.2957,
2011-02-15, 01:10:04,VALID,916.666,VALID,0,VALID,90.9169,VALID,0,VALID,17.7728,VALID,115,VALID,1.0543,
2011-02-15, 01:11:04,VALID,916.628,VALID,0,VALID,91.42,VALID,0,VALID,17.7547,VALID,115,VALID,1.16523,
2011-02-15, 01:12:04,VALID,916.625,VALID,0,VALID,91.8469,VALID,0,VALID,17.6559,VALID,115,VALID,1.51563,
2011-02-15, 01:13:04,VALID,916.606,VALID,0,VALID,91.7173,VALID,0.107441,VALID,17.6559,VALID,122,VALID,1.61211,
2011-02-15, 01:14:04,VALID,916.63,VALID,0,VALID,91.5648,VALID,0,VALID,17.6364,VALID,128,VALID,1.12891,
2011-02-15, 01:15:04,VALID,916.634,VALID,0,VALID,90.9245,VALID,0,VALID,17.6559,VALID,124,VALID,1.19336,
2011-02-15, 01:16:04,VALID,916.603,VALID,0,VALID,90.3527,VALID,0,VALID,17.6754,VALID,123,VALID,1.6707,
2011-02-15, 01:17:04,VALID,916.626,VALID,0,VALID,90.0097,VALID,0,VALID,17.7143,VALID,120,VALID,1.62461,
2011-02-15, 01:18:04,VALID,916.599,VALID,0,VALID,89.8572,VALID,0,VALID,17.7325,VALID,111,VALID,1.70977,
2011-02-15, 01:19:04,VALID,916.601,VALID,0,VALID,89.9563,VALID,0,VALID,17.7533,VALID,113,VALID,1.35547,
2011-02-15, 01:20:04,VALID,916.619,VALID,0,VALID,90.2003,VALID,0,VALID,17.7547,VALID,109,VALID,1.24727,
2011-02-15, 01:21:04,VALID,916.627,VALID,0,VALID,90.3604,VALID,0,VALID,17.7338,VALID,109,VALID,0.91875,
2011-02-15, 01:22:04,VALID,916.624,VALID,0,VALID,90.5891,VALID,0,VALID,17.6948,VALID,109,VALID,1.07148,
2011-02-15, 01:23:04,VALID,916.613,VALID,0,VALID,90.8406,VALID,0,VALID,17.6948,VALID,109,VALID,1.1625,
2011-02-15, 01:24:04,VALID,916.65,VALID,0,VALID,90.9626,VALID,0.107441,VALID,17.6754,VALID,109,VALID,0.958203,
2011-02-15, 01:25:04,VALID,916.639,VALID,0,VALID,90.6424,VALID,0,VALID,17.6559,VALID,109,VALID,1.0375,
2011-02-15, 01:26:04,VALID,916.625,VALID,0,VALID,90.5281,VALID,0,VALID,17.6754,VALID,109,VALID,0.829687,
2011-02-15, 01:27:04,VALID,916.624,VALID,0,VALID,90.4747,VALID,0,VALID,17.635,VALID,109,VALID,0.735156,
2011-02-15, 01:28:04,VALID,916.594,VALID,0,VALID,90.4899,VALID,0,VALID,17.6364,VALID,109,VALID,1.01133,
2011-02-15, 01:29:04,VALID,916.581,VALID,0,VALID,90.5891,VALID,0,VALID,17.6364,VALID,109,VALID,1.23906,
2011-02-15, 01:30:04,VALID,916.578,VALID,0,VALID,90.6882,VALID,0,VALID,17.6364,VALID,109,VALID,1.20117,
2011-02-15, 01:31:04,VALID,916.544,VALID,0,VALID,90.5128,VALID,0,VALID,17.6559,VALID,117,VALID,1.2,
2011-02-15, 01:32:04,VALID,916.533,VALID,0,VALID,90.7644,VALID,0,VALID,17.6754,VALID,129,VALID,1.32187,
2011-02-15, 01:33:04,VALID,916.532,VALID,0,VALID,90.9778,VALID,0,VALID,17.6948,VALID,126,VALID,0.813672,
2011-02-15, 01:34:04,VALID,916.539,VALID,0,VALID,91.0083,VALID,0,VALID,17.6754,VALID,126,VALID,0.744922,
2011-02-15, 01:35:04,VALID,916.475,VALID,0,VALID,90.9321,VALID,0.107441,VALID,17.6559,VALID,133,VALID,1.19609,
2011-02-15, 01:36:04,VALID,916.48,VALID,0,VALID,91.1989,VALID,0,VALID,17.6754,VALID,149,VALID,0.686328,
2011-02-15, 01:37:04,VALID,916.474,VALID,0,VALID,91.3133,VALID,0,VALID,17.6754,VALID,149,VALID,0.823047,
2011-02-15, 01:38:04,VALID,916.458,VALID,0,VALID,91.359,VALID,0,VALID,17.6948,VALID,176,VALID,1.38281,
2011-02-15, 01:39:04,VALID,916.43,VALID,0,VALID,91.2752,VALID,0,VALID,17.6948,VALID,181,VALID,1.06602,
2011-02-15, 01:40:04,VALID,916.41,VALID,0,VALID,91.1074,VALID,0,VALID,17.7352,VALID,158,VALID,1,
2011-02-15, 01:41:04,VALID,916.395,VALID,0,VALID,90.955,VALID,0.107441,VALID,17.7338,VALID,176,VALID,1.20781,
2011-02-15, 01:42:04,VALID,916.372,VALID,0,VALID,90.8787,VALID,0,VALID,17.7338,VALID,175,VALID,0.769922,
2011-02-15, 01:43:04,VALID,916.347,VALID,0,VALID,90.2612,VALID,0,VALID,17.7741,VALID,146,VALID,0.608984,
2011-02-15, 01:44:04,VALID,916.319,VALID,0,VALID,89.8801,VALID,0,VALID,17.8118,VALID,138,VALID,0.24375,
2011-02-15, 01:45:04,VALID,916.314,VALID,0,VALID,89.1559,VALID,0,VALID,17.8313,VALID,139,VALID,0.664844,
2011-02-15, 01:46:04,VALID,916.303,VALID,0,VALID,88.8509,VALID,0.107441,VALID,17.8494,VALID,139,VALID,0.657812,
2011-02-15, 01:47:04,VALID,916.297,VALID,0,VALID,88.5002,VALID,0,VALID,17.9106,VALID,139,VALID,0.899609,
2011-02-15, 01:48:04,VALID,916.287,VALID,0,VALID,87.9132,VALID,0,VALID,17.9092,VALID,139,VALID,1.06094,
2011-02-15, 01:49:04,VALID,916.294,VALID,0,VALID,88.1419,VALID,0,VALID,17.9691,VALID,139,VALID,0.845312,
2011-02-15, 01:50:04,VALID,916.32,VALID,0,VALID,87.8827,VALID,0,VALID,17.9482,VALID,139,VALID,0.980859,
2011-02-15, 01:51:04,VALID,916.322,VALID,0,VALID,87.6235,VALID,0,VALID,17.9482,VALID,139,VALID,1.1082,
2011-02-15, 01:52:04,VALID,916.361,VALID,0,VALID,87.0975,VALID,0,VALID,18.008,VALID,139,VALID,1.02891,
2011-02-15, 01:53:04,VALID,916.382,VALID,0,VALID,86.6859,VALID,0,VALID,17.9872,VALID,139,VALID,1.55547,
2011-02-15, 01:54:04,VALID,916.357,VALID,0,VALID,86.9298,VALID,0,VALID,18.086,VALID,139,VALID,1.14961,
2011-02-15, 01:55:04,VALID,916.378,VALID,0,VALID,87.25,VALID,0,VALID,18.0665,VALID,139,VALID,1.33633,
2011-02-15, 01:56:04,VALID,916.376,VALID,0,VALID,87.8675,VALID,0,VALID,18.0067,VALID,139,VALID,0.833594,
2011-02-15, 01:57:04,VALID,916.352,VALID,0,VALID,88.0123,VALID,0,VALID,17.9482,VALID,138,VALID,1.17695,
2011-02-15, 01:58:04,VALID,916.341,VALID,0,VALID,88.2487,VALID,0,VALID,17.9287,VALID,138,VALID,1.20117,
2011-02-15, 01:59:04,VALID,916.331,VALID,0,VALID,88.546,VALID,0,VALID,17.9287,VALID,138,VALID,0.976953,
2011-02-15, 02:00:04,VALID,916.333,VALID,0,VALID,89.011,VALID,0,VALID,17.9092,VALID,138,VALID,1.01797,
2011-02-15, 02:01:04,VALID,916.317,VALID,0,VALID,89.8191,VALID,0,VALID,17.8702,VALID,138,VALID,1.26797,
2011-02-15, 02:02:04,VALID,916.33,VALID,0,VALID,90.5967,VALID,0,VALID,17.8118,VALID,116,VALID,1.20742,
2011-02-15, 02:03:04,VALID,916.285,VALID,0,VALID,90.9245,VALID,0,VALID,17.7547,VALID,128,VALID,1.25,
2011-02-15, 02:04:04,VALID,916.271,VALID,0,VALID,90.8254,VALID,0,VALID,17.7352,VALID,117,VALID,1.83594,
2011-02-15, 02:05:04,VALID,916.266,VALID,0,VALID,90.9473,VALID,0,VALID,17.7741,VALID,116,VALID,1.09141,
2011-02-15, 02:06:04,VALID,916.276,VALID,0,VALID,90.8406,VALID,0,VALID,17.7533,VALID,118,VALID,1.36758,
2011-02-15, 02:07:04,VALID,916.273,VALID,0,VALID,90.6653,VALID,0,VALID,17.7728,VALID,108,VALID,1.3125,
2011-02-15, 02:08:04,VALID,916.247,VALID,0,VALID,90.368,VALID,0,VALID,17.8131,VALID,126,VALID,1.1168,
2011-02-15, 02:09:04,VALID,916.234,VALID,0,VALID,89.7352,VALID,0,VALID,17.8313,VALID,126,VALID,1.3168,
2011-02-15, 02:10:04,VALID,916.231,VALID,0,VALID,89.5523,VALID,0,VALID,17.8702,VALID,119,VALID,0.893359,
2011-02-15, 02:11:04,VALID,916.217,VALID,0,VALID,88.9195,VALID,0,VALID,17.8897,VALID,113,VALID,1.04375,
2011-02-15, 02:12:04,VALID,916.209,VALID,0,VALID,88.5231,VALID,0,VALID,17.9482,VALID,131,VALID,0.788281,
2011-02-15, 02:13:04,VALID,916.231,VALID,0,VALID,88.2563,VALID,0,VALID,17.9677,VALID,157,VALID,0.858203,
2011-02-15, 02:14:04,VALID,916.236,VALID,0,VALID,87.776,VALID,0,VALID,18.0275,VALID,124,VALID,0.858984,
2011-02-15, 02:15:04,VALID,916.23,VALID,0,VALID,87.4406,VALID,0,VALID,18.0665,VALID,124,VALID,0.642187,
2011-02-15, 02:16:04,VALID,916.211,VALID,0,VALID,87.5549,VALID,0,VALID,18.086,VALID,124,VALID,0.833203,
2011-02-15, 02:17:04,VALID,916.229,VALID,0,VALID,87.2271,VALID,0,VALID,18.0651,VALID,124,VALID,1.11406,
2011-02-15, 02:18:04,VALID,916.218,VALID,0,VALID,87.4101,VALID,0,VALID,18.0846,VALID,124,VALID,0.905078,
2011-02-15, 02:19:04,VALID,916.205,VALID,0,VALID,87.5244,VALID,0,VALID,18.1041,VALID,124,VALID,0.8875,
2011-02-15, 02:20:04,VALID,916.213,VALID,0,VALID,87.8904,VALID,0,VALID,18.1041,VALID,124,VALID,1.05977,
2011-02-15, 02:21:04,VALID,916.185,VALID,0,VALID,87.6007,VALID,0,VALID,18.0846,VALID,124,VALID,1.28164,
2011-02-15, 02:22:04,VALID,916.187,VALID,0,VALID,87.6083,VALID,0,VALID,18.0846,VALID,124,VALID,1.12227,
2011-02-15, 02:23:04,VALID,916.186,VALID,0,VALID,87.6007,VALID,0,VALID,18.0846,VALID,124,VALID,1.31719,
2011-02-15, 02:24:04,VALID,916.188,VALID,0,VALID,87.3643,VALID,0,VALID,18.0665,VALID,124,VALID,1.14648,
2011-02-15, 02:25:04,VALID,916.173,VALID,0,VALID,87.837,VALID,0,VALID,18.0651,VALID,124,VALID,0.759375,
2011-02-15, 02:26:04,VALID,916.172,VALID,0,VALID,88.2868,VALID,0,VALID,18.0457,VALID,124,VALID,0.802344,
2011-02-15, 02:27:04,VALID,916.184,VALID,0,VALID,88.8509,VALID,0,VALID,18.0262,VALID,124,VALID,0.717188,
2011-02-15, 02:28:04,VALID,916.188,VALID,0,VALID,87.776,VALID,0,VALID,18.0262,VALID,133,VALID,1.01016,
2011-02-15, 02:29:04,VALID,916.191,VALID,0,VALID,88.0581,VALID,0,VALID,18.047,VALID,133,VALID,1.14141,
2011-02-15, 02:30:04,VALID,916.199,VALID,0,VALID,89.011,VALID,0,VALID,18.0067,VALID,133,VALID,0.767187,
2011-02-15, 02:31:04,VALID,916.211,VALID,0,VALID,90.0021,VALID,0,VALID,17.9677,VALID,133,VALID,0.543359,
2011-02-15, 02:32:04,VALID,916.222,VALID,0,VALID,89.9411,VALID,0,VALID,17.9092,VALID,133,VALID,0.845312,
2011-02-15, 02:33:04,VALID,916.198,VALID,0,VALID,89.5294,VALID,0,VALID,17.8508,VALID,133,VALID,1.10312,
2011-02-15, 02:34:04,VALID,916.193,VALID,0,VALID,89.7276,VALID,0,VALID,17.8702,VALID,133,VALID,0.96875,
2011-02-15, 02:35:04,VALID,916.195,VALID,0,VALID,89.659,VALID,0,VALID,17.9106,VALID,133,VALID,0.675,
2011-02-15, 02:36:04,VALID,916.175,VALID,0,VALID,89.7581,VALID,0,VALID,17.9092,VALID,133,VALID,0.694531,
2011-02-15, 02:37:04,VALID,916.215,VALID,0,VALID,89.415,VALID,0,VALID,17.9106,VALID,156,VALID,0.666016,
2011-02-15, 02:38:04,VALID,916.173,VALID,0,VALID,89.0034,VALID,0,VALID,17.9092,VALID,155,VALID,1.13711,
2011-02-15, 02:39:04,VALID,916.195,VALID,0,VALID,89.3388,VALID,0,VALID,17.9287,VALID,155,VALID,0.771094,
2011-02-15, 02:40:04,VALID,916.151,VALID,0,VALID,89.7505,VALID,0,VALID,17.9287,VALID,155,VALID,0.845703,
2011-02-15, 02:41:04,VALID,916.134,VALID,0,VALID,89.842,VALID,0,VALID,17.9301,VALID,152,VALID,0.909375,
2011-02-15, 02:42:04,VALID,916.124,VALID,0,VALID,90.0097,VALID,0,VALID,17.9287,VALID,127,VALID,1.07852,
2011-02-15, 02:43:04,VALID,916.095,VALID,0,VALID,89.6666,VALID,0,VALID,17.9496,VALID,127,VALID,0.948828,
2011-02-15, 02:44:04,VALID,916.098,VALID,0,VALID,89.0263,VALID,0,VALID,17.9287,VALID,127,VALID,1.14102,
2011-02-15, 02:45:04,VALID,916.069,VALID,0,VALID,88.828,VALID,0,VALID,17.9886,VALID,127,VALID,0.976953,
2011-02-15, 02:46:04,VALID,916.077,VALID,0,VALID,89.5599,VALID,0,VALID,18.0275,VALID,127,VALID,0.770703,
2011-02-15, 02:47:04,VALID,916.047,VALID,0,VALID,89.8343,VALID,0,VALID,17.9858,VALID,127,VALID,0.815234,
2011-02-15, 02:48:04,VALID,916.044,VALID,0,VALID,89.0949,VALID,0,VALID,17.9872,VALID,150,VALID,0.924219,
2011-02-15, 02:49:04,VALID,916.061,VALID,0,VALID,88.3173,VALID,0,VALID,17.9872,VALID,150,VALID,0.980469,
2011-02-15, 02:50:04,VALID,916.047,VALID,0,VALID,88.4697,VALID,0,VALID,18.0457,VALID,150,VALID,0.701172,
2011-02-15, 02:51:04,VALID,916.088,VALID,0,VALID,88.3401,VALID,0,VALID,18.0651,VALID,150,VALID,0.825781,
2011-02-15, 02:52:04,VALID,916.076,VALID,0,VALID,88.2639,VALID,0,VALID,18.0651,VALID,150,VALID,0.867578,
2011-02-15, 02:53:04,VALID,916.069,VALID,0,VALID,88.2563,VALID,0,VALID,18.086,VALID,150,VALID,0.970312,
2011-02-15, 02:54:04,VALID,916.063,VALID,0,VALID,87.9818,VALID,0,VALID,18.086,VALID,150,VALID,0.870703,
2011-02-15, 02:55:04,VALID,916.082,VALID,0,VALID,88.424,VALID,0,VALID,18.0665,VALID,150,VALID,0.658203,
2011-02-15, 02:56:04,VALID,916.064,VALID,0,VALID,87.6998,VALID,0,VALID,18.0651,VALID,150,VALID,0.893359,
2011-02-15, 02:57:04,VALID,916.069,VALID,0,VALID,87.7913,VALID,0,VALID,18.0651,VALID,150,VALID,1.07969,
2011-02-15, 02:58:04,VALID,916.09,VALID,0,VALID,87.2881,VALID,0,VALID,18.0846,VALID,150,VALID,1.2418,
2011-02-15, 02:59:04,VALID,916.106,VALID,0,VALID,87.1738,VALID,0,VALID,18.0846,VALID,140,VALID,1.52617,
2011-02-15, 03:00:04,VALID,916.117,VALID,0,VALID,87.1509,VALID,0,VALID,18.0846,VALID,130,VALID,1.32813,
2011-02-15, 03:01:04,VALID,916.125,VALID,0,VALID,87.128,VALID,0,VALID,18.0651,VALID,142,VALID,1.12109,
2011-02-15, 03:02:04,VALID,916.135,VALID,0,VALID,87.1966,VALID,0,VALID,18.0846,VALID,137,VALID,0.984766,
2011-02-15, 03:03:04,VALID,916.158,VALID,0,VALID,86.8383,VALID,0,VALID,18.0846,VALID,134,VALID,1.3457,
2011-02-15, 03:04:04,VALID,916.176,VALID,0,VALID,86.7164,VALID,0,VALID,18.125,VALID,121,VALID,1.46875,
2011-02-15, 03:05:04,VALID,916.176,VALID,0,VALID,86.8002,VALID,0,VALID,18.1041,VALID,120,VALID,1.32383,
2011-02-15, 03:06:04,VALID,916.17,VALID,0,VALID,87.0442,VALID,0,VALID,18.1041,VALID,121,VALID,1.12773,
2011-02-15, 03:07:04,VALID,916.156,VALID,0,VALID,86.9984,VALID,0,VALID,18.1041,VALID,121,VALID,0.889063,
2011-02-15, 03:08:04,VALID,916.131,VALID,0,VALID,87.5626,VALID,0,VALID,18.125,VALID,120,VALID,0.776563,
2011-02-15, 03:09:04,VALID,916.115,VALID,0,VALID,87.7836,VALID,0,VALID,18.0651,VALID,121,VALID,0.800781,
2011-02-15, 03:10:04,VALID,916.068,VALID,0,VALID,87.9285,VALID,0,VALID,18.0457,VALID,120,VALID,0.568359,
2011-02-15, 03:11:04,VALID,916.087,VALID,0,VALID,88.1343,VALID,0,VALID,18.0262,VALID,121,VALID,0.687109,
2011-02-15, 03:12:04,VALID,916.073,VALID,0,VALID,87.4787,VALID,0,VALID,17.9872,VALID,121,VALID,0.618359,
2011-02-15, 03:13:04,VALID,916.065,VALID,0,VALID,87.7226,VALID,0,VALID,18.008,VALID,121,VALID,0.360938,
2011-02-15, 03:14:04,VALID,916.047,VALID,0,VALID,87.9513,VALID,0,VALID,17.9872,VALID,120,VALID,0.179297,
2011-02-15, 03:15:04,VALID,916.054,VALID,0,VALID,88.2792,VALID,0,VALID,18.008,VALID,121,VALID,0.497266,
2011-02-15, 03:16:04,VALID,916.042,VALID,0,VALID,88.4164,VALID,0,VALID,17.9872,VALID,121,VALID,0.775781,
2011-02-15, 03:17:04,VALID,916.011,VALID,0,VALID,88.5231,VALID,0,VALID,17.9872,VALID,121,VALID,0.712109,
2011-02-15, 03:18:04,VALID,915.99,VALID,0,VALID,88.6375,VALID,0,VALID,17.9872,VALID,121,VALID,0.770312,
2011-02-15, 03:19:04,VALID,916.003,VALID,0,VALID,88.7899,VALID,0,VALID,17.9872,VALID,121,VALID,0.55,
2011-02-15, 03:20:04,VALID,915.98,VALID,0,VALID,89.5218,VALID,0,VALID,17.9691,VALID,121,VALID,0.355078,
2011-02-15, 03:21:04,VALID,915.966,VALID,0,VALID,88.8433,VALID,0,VALID,17.9092,VALID,121,VALID,0.414453,
2011-02-15, 03:22:04,VALID,915.955,VALID,0,VALID,89.3312,VALID,0,VALID,17.8897,VALID,121,VALID,0.319141,
2011-02-15, 03:23:04,VALID,915.97,VALID,0,VALID,89.072,VALID,0,VALID,17.8521,VALID,120,VALID,0.448828,
2011-02-15, 03:24:04,VALID,915.942,VALID,0,VALID,88.4164,VALID,0,VALID,17.7923,VALID,150,VALID,0.960156,
2011-02-15, 03:25:04,VALID,915.926,VALID,0,VALID,88.4164,VALID,0,VALID,17.8716,VALID,149,VALID,1.27734,
2011-02-15, 03:26:04,VALID,915.975,VALID,0,VALID,88.1801,VALID,0,VALID,17.8702,VALID,150,VALID,1.00391,
2011-02-15, 03:27:04,VALID,915.936,VALID,0,VALID,88.6146,VALID,0,VALID,17.8689,VALID,136,VALID,0.946875,
2011-02-15, 03:28:04,VALID,915.964,VALID,0,VALID,86.2742,VALID,0,VALID,17.9092,VALID,121,VALID,1.48516,
2011-02-15, 03:29:04,VALID,915.95,VALID,0,VALID,85.9616,VALID,0,VALID,17.9886,VALID,121,VALID,1.1418,
2011-02-15, 03:30:04,VALID,915.945,VALID,0,VALID,86.3352,VALID,0,VALID,18.0262,VALID,121,VALID,1.08633,
2011-02-15, 03:31:04,VALID,915.948,VALID,0,VALID,86.5715,VALID,0,VALID,18.0067,VALID,121,VALID,1.02734,
2011-02-15, 03:32:04,VALID,915.919,VALID,0,VALID,86.8231,VALID,0,VALID,17.9677,VALID,121,VALID,1.12109,
2011-02-15, 03:33:04,VALID,915.932,VALID,0,VALID,87.1661,VALID,0,VALID,17.9482,VALID,121,VALID,1.1332,
2011-02-15, 03:34:04,VALID,915.882,VALID,0,VALID,87.7074,VALID,0,VALID,17.9287,VALID,121,VALID,0.846094,
2011-02-15, 03:35:04,VALID,915.895,VALID,0,VALID,87.8904,VALID,0,VALID,17.9106,VALID,121,VALID,0.747656,
2011-02-15, 03:36:04,VALID,915.888,VALID,0,VALID,87.7684,VALID,0,VALID,17.9092,VALID,121,VALID,0.828125,
2011-02-15, 03:37:04,VALID,915.883,VALID,0,VALID,87.8446,VALID,0,VALID,17.8897,VALID,121,VALID,0.736328,
2011-02-15, 03:38:04,VALID,915.899,VALID,0,VALID,88.0581,VALID,0,VALID,17.9092,VALID,121,VALID,0.701953,
2011-02-15, 03:39:04,VALID,915.896,VALID,0,VALID,88.7671,VALID,0,VALID,17.9301,VALID,121,VALID,0.4875,
2011-02-15, 03:40:04,VALID,915.864,VALID,0,VALID,88.4469,VALID,0,VALID,17.8702,VALID,121,VALID,0.634766,
2011-02-15, 03:41:04,VALID,915.859,VALID,0,VALID,88.3478,VALID,0,VALID,17.8521,VALID,121,VALID,0.714844,
2011-02-15, 03:42:04,VALID,915.856,VALID,0,VALID,88.0352,VALID,0,VALID,17.8118,VALID,121,VALID,0.823047,
2011-02-15, 03:43:04,VALID,915.869,VALID,0,VALID,88.0352,VALID,0,VALID,17.8326,VALID,121,VALID,0.963281,
2011-02-15, 03:44:04,VALID,915.849,VALID,0,VALID,88.2334,VALID,0,VALID,17.7936,VALID,121,VALID,0.946875,